Time,TemperatureF,DewpointF,PressureIn,WindDirection,WindDirectionDegrees,WindSpeedMPH,WindSpeedGustMPH,Humidity,HourlyPrecipIn,Conditions,Clouds,dailyrainin,SoftwareType,DateUTC
2013-06-26 00:01:00,53.0,53.0,29.88,South,175,2.0,14.0,100,0.01,,,0.56,,2013-06-26 07:01:00,
2013-06-26 00:11:00,53.0,53.0,29.88,SSE,163,1.0,14.0,100,0.01,,,0.56,,2013-06-26 07:11:00,
2013-06-26 00:33:00,54.0,54.0,29.89,South,187,0.0,13.0,100,0.02,,,0.52,,2013-06-26 07:33:00,
2013-06-26 00:42:00,53.0,53.0,29.89,South,176,1.0,13.0,100,0.02,,,0.52,,2013-06-26 07:42:00,
2013-06-26 00:53:00,53.0,53.0,29.90,SSW,208,3.0,13.0,100,0.03,,,0.52,,2013-06-26 07:53:00,
2013-06-26 01:01:00,53.0,53.0,29.89,SE,144,4.0,14.0,100,0.04,,,0.52,,2013-06-26 08:01:00,
2013-06-26 01:11:00,53.0,53.0,29.89,SSE,151,0.0,14.0,100,0.04,,,0.52,,2013-06-26 08:11:00,
2013-06-26 01:33:00,53.0,53.0,29.88,West,260,0.0,12.0,100,0.03,,,0.52,,2013-06-26 08:33:00,
2013-06-26 01:42:00,53.0,53.0,29.89,SSE,161,5.0,14.0,100,0.04,,,0.52,,2013-06-26 08:42:00,
2013-06-26 01:52:00,53.0,53.0,29.89,SE,141,4.0,14.0,100,0.04,,,0.52,,2013-06-26 08:52:00,
2013-06-26 02:01:00,53.0,53.0,29.89,SE,141,4.0,14.0,100,0.04,,,0.52,,2013-06-26 09:01:00,
2013-06-26 02:11:00,53.0,53.0,29.89,SSE,159,0.0,10.0,100,0.05,,,0.52,,2013-06-26 09:11:00,
2013-06-26 02:32:00,53.0,53.0,29.90,North,0,5.0,9.0,100,0.05,,,0.56,,2013-06-26 09:32:00,
2013-06-26 02:43:00,53.0,53.0,29.90,North,0,5.0,9.0,100,0.05,,,0.56,,2013-06-26 09:43:00,
2013-06-26 02:53:00,53.0,53.0,29.90,North,0,0.0,10.0,100,0.03,,,0.56,,2013-06-26 09:53:00,
2013-06-26 03:01:00,53.0,53.0,29.90,SW,222,0.0,11.0,100,0.01,,,0.56,,2013-06-26 10:01:00,
2013-06-26 03:12:00,53.0,53.0,29.90,South,169,0.0,6.0,100,0.02,,,0.56,,2013-06-26 10:12:00,
2013-06-26 03:22:00,53.0,53.0,29.91,SSW,204,0.0,11.0,100,0.04,,,0.60,,2013-06-26 10:22:00,
2013-06-26 03:33:00,53.0,53.0,29.91,SSW,204,0.0,11.0,100,0.04,,,0.60,,2013-06-26 10:33:00,
2013-06-26 03:43:00,53.0,53.0,29.91,SSW,204,3.0,12.0,100,0.06,,,0.60,,2013-06-26 10:43:00,
2013-06-26 03:53:00,53.0,53.0,29.91,SSW,201,5.0,12.0,100,0.06,,,0.60,,2013-06-26 10:53:00,
2013-06-26 04:02:00,53.0,53.0,29.90,SE,142,6.0,10.0,100,0.06,,,0.60,,2013-06-26 11:02:00,
2013-06-26 04:11:00,53.0,53.0,29.90,SSW,197,0.0,10.0,100,0.06,,,0.60,,2013-06-26 11:11:00,
2013-06-26 04:22:00,53.0,53.0,29.91,North,0,3.0,13.0,100,0.05,,,0.60,,2013-06-26 11:22:00,
2013-06-26 04:32:00,53.0,53.0,29.91,North,0,0.0,5.0,100,0.00,,,0.63,,2013-06-26 11:32:00,
2013-06-26 04:43:00,53.0,53.0,29.91,North,0,0.0,7.0,100,0.00,,,0.63,,2013-06-26 11:43:00,
2013-06-26 04:52:00,53.0,53.0,29.91,WSW,242,0.0,7.0,100,0.00,,,0.63,,2013-06-26 11:52:00,
2013-06-26 05:02:00,53.0,53.0,29.92,SSW,204,0.0,9.0,100,0.00,,,0.63,,2013-06-26 12:02:00,
2013-06-26 05:11:00,53.0,53.0,29.92,SE,145,1.0,9.0,100,0.00,,,0.63,,2013-06-26 12:11:00,
2013-06-26 05:22:00,53.0,53.0,29.93,SW,225,2.0,8.0,100,0.00,,,0.54,,2013-06-26 12:22:00,
2013-06-26 05:33:00,53.0,53.0,29.93,SE,135,2.0,6.0,100,0.00,,,0.54,,2013-06-26 12:33:00,
2013-06-26 05:42:00,53.0,53.0,29.93,WSW,250,0.0,11.0,100,0.00,,,0.54,,2013-06-26 12:42:00,
2013-06-26 05:52:00,53.0,53.0,29.93,West,259,1.0,11.0,100,0.00,,,0.54,,2013-06-26 12:52:00,
2013-06-26 06:02:00,53.0,53.0,29.93,SSE,152,0.0,9.0,100,0.00,,,0.54,,2013-06-26 13:02:00,
2013-06-26 06:22:00,53.0,53.0,29.94,South,175,2.0,16.0,100,0.00,,,0.54,,2013-06-26 13:22:00,
2013-06-26 06:34:00,53.0,53.0,29.94,South,175,2.0,16.0,100,0.00,,,0.54,,2013-06-26 13:34:00,
2013-06-26 06:42:00,53.0,53.0,29.94,SW,229,4.0,11.0,100,0.00,,,0.50,,2013-06-26 13:42:00,
2013-06-26 06:53:00,53.0,53.0,29.94,North,0,0.0,7.0,100,0.00,,,0.50,,2013-06-26 13:53:00,
2013-06-26 07:02:00,53.0,53.0,29.95,SSE,147,1.0,8.0,100,0.00,,,0.50,,2013-06-26 14:02:00,
2013-06-26 07:11:00,53.0,53.0,29.95,South,186,0.0,8.0,100,0.00,,,0.50,,2013-06-26 14:11:00,
2013-06-26 07:33:00,53.0,53.0,29.96,NW,315,2.0,10.0,100,0.00,,,0.50,,2013-06-26 14:33:00,
2013-06-26 07:42:00,53.0,53.0,29.96,SW,219,0.0,13.0,100,0.00,,,0.50,,2013-06-26 14:42:00,
2013-06-26 07:52:00,53.0,53.0,29.96,SSW,197,1.0,13.0,100,0.00,,,0.50,,2013-06-26 14:52:00,
2013-06-26 08:02:00,53.0,53.0,29.96,SW,235,0.0,12.0,100,0.00,,,0.50,,2013-06-26 15:02:00,
2013-06-26 08:11:00,53.0,53.0,29.96,SSW,196,3.0,11.0,100,0.00,,,0.50,,2013-06-26 15:11:00,
2013-06-26 08:33:00,53.0,53.0,29.97,North,0,1.0,15.0,100,0.00,,,0.49,,2013-06-26 15:33:00,
2013-06-26 08:43:00,53.0,53.0,29.97,South,179,4.0,14.0,100,0.00,,,0.49,,2013-06-26 15:43:00,
2013-06-26 08:53:00,53.0,53.0,29.97,South,173,0.0,14.0,100,0.00,,,0.49,,2013-06-26 15:53:00,
2013-06-26 09:01:00,53.0,53.0,29.97,West,273,3.0,14.0,100,0.00,,,0.49,,2013-06-26 16:01:00,
2013-06-26 09:11:00,53.0,53.0,29.98,WSW,239,1.0,14.0,100,0.00,,,0.49,,2013-06-26 16:11:00,
2013-06-26 09:22:00,53.0,53.0,29.98,South,189,0.0,12.0,100,0.00,,,0.48,,2013-06-26 16:22:00,
2013-06-26 09:34:00,54.0,54.0,29.98,South,182,0.0,16.0,100,0.00,,,0.48,,2013-06-26 16:34:00,
2013-06-26 09:43:00,54.0,54.0,29.98,SSW,204,7.0,10.0,100,0.00,,,0.48,,2013-06-26 16:43:00,
2013-06-26 09:52:00,54.0,54.0,29.98,WNW,287,0.0,10.0,100,0.00,,,0.48,,2013-06-26 16:52:00,
2013-06-26 10:01:00,54.0,54.0,29.98,West,264,3.0,10.0,100,0.00,,,0.48,,2013-06-26 17:01:00,
2013-06-26 10:11:00,54.0,54.0,29.99,WSW,238,2.0,6.0,100,0.00,,,0.48,,2013-06-26 17:11:00,
2013-06-26 10:43:00,55.0,55.0,30.00,SW,224,0.0,8.0,100,0.00,,,0.48,,2013-06-26 17:43:00,
2013-06-26 10:52:00,55.0,55.0,30.00,SW,233,0.0,8.0,100,0.00,,,0.48,,2013-06-26 17:52:00,
2013-06-26 11:01:00,55.0,55.0,30.00,WSW,249,0.0,8.0,100,0.00,,,0.48,,2013-06-26 18:01:00,
2013-06-26 14:23:00,57.0,57.0,30.04,WSW,240,7.0,13.0,100,0.00,,,0.31,,2013-06-26 21:23:00,
2013-06-26 14:52:00,57.0,57.0,30.05,WNW,285,6.0,15.0,99,0.00,,,0.31,,2013-06-26 21:52:00,
2013-06-26 15:11:00,58.0,57.0,30.05,WSW,253,6.0,15.0,98,0.00,,,0.31,,2013-06-26 22:11:00,
2013-06-26 15:43:00,59.0,58.0,30.05,West,259,6.0,14.0,98,0.00,,,0.31,,2013-06-26 22:43:00,
2013-06-26 15:52:00,59.0,58.0,30.05,WNW,291,5.0,14.0,98,0.00,,,0.31,,2013-06-26 22:52:00,
2013-06-26 16:01:00,60.0,59.0,30.04,SW,224,2.0,12.0,96,0.00,,,0.31,,2013-06-26 23:01:00,
2013-06-26 16:11:00,60.0,59.0,30.04,West,278,3.0,12.0,96,0.00,,,0.31,,2013-06-26 23:11:00,
2013-06-26 16:22:00,59.0,58.0,30.04,West,275,6.0,13.0,96,0.00,,,0.31,,2013-06-26 23:22:00,
2013-06-26 16:34:00,59.0,58.0,30.04,West,267,5.0,15.0,96,0.00,,,0.31,,2013-06-26 23:34:00,
2013-06-26 16:43:00,60.0,59.0,30.05,WSW,253,7.0,11.0,96,0.00,,,0.31,,2013-06-26 23:43:00,
2013-06-26 16:52:00,60.0,59.0,30.05,WSW,253,7.0,11.0,96,0.00,,,0.31,,2013-06-26 23:52:00,
2013-06-26 17:01:00,60.0,59.0,30.05,WNW,285,6.0,15.0,95,0.00,,,0.31,,2013-06-27 00:01:00,
2013-06-26 17:11:00,60.0,59.0,30.05,WNW,285,6.0,15.0,95,0.00,,,0.31,,2013-06-27 00:11:00,
2013-06-26 17:22:00,59.0,58.0,30.05,West,266,8.0,18.0,95,0.00,,,0.31,,2013-06-27 00:22:00,
2013-06-26 17:33:00,59.0,58.0,30.05,South,187,6.0,15.0,96,0.00,,,0.31,,2013-06-27 00:33:00,
2013-06-26 17:42:00,59.0,58.0,30.05,South,182,3.0,15.0,96,0.00,,,0.31,,2013-06-27 00:42:00,
2013-06-26 17:53:00,59.0,58.0,30.05,SW,224,5.0,11.0,95,0.00,,,0.31,,2013-06-27 00:53:00,
2013-06-26 18:01:00,59.0,58.0,30.05,SW,224,5.0,11.0,95,0.00,,,0.31,,2013-06-27 01:01:00,
2013-06-26 18:11:00,59.0,58.0,30.05,SW,222,5.0,14.0,95,0.00,,,0.31,,2013-06-27 01:11:00,
2013-06-26 18:21:00,59.0,58.0,30.05,SW,222,5.0,14.0,95,0.00,,,0.31,,2013-06-27 01:21:00,
2013-06-26 18:32:00,60.0,58.0,30.06,WSW,243,10.0,16.0,94,0.00,,,0.31,,2013-06-27 01:32:00,
2013-06-26 18:42:00,60.0,58.0,30.05,West,274,9.0,14.0,94,0.00,,,0.31,,2013-06-27 01:42:00,
2013-06-26 18:52:00,60.0,58.0,30.05,West,274,9.0,14.0,94,0.00,,,0.31,,2013-06-27 01:52:00,
2013-06-26 19:01:00,59.0,57.0,30.05,West,260,7.0,14.0,94,0.00,,,0.31,,2013-06-27 02:01:00,
2013-06-26 19:11:00,59.0,57.0,30.05,West,260,7.0,14.0,94,0.00,,,0.31,,2013-06-27 02:11:00,
2013-06-26 19:22:00,59.0,58.0,30.05,West,260,4.0,6.0,95,0.00,,,0.31,,2013-06-27 02:22:00,
2013-06-26 19:32:00,59.0,58.0,30.05,West,260,4.0,6.0,95,0.00,,,0.31,,2013-06-27 02:32:00,
2013-06-26 19:42:00,59.0,58.0,30.05,SW,217,4.0,11.0,95,0.00,,,0.31,,2013-06-27 02:42:00,
2013-06-26 19:52:00,58.0,57.0,30.04,West,270,1.0,7.0,96,0.00,,,0.31,,2013-06-27 02:52:00,
2013-06-26 20:01:00,58.0,57.0,30.04,West,270,1.0,7.0,96,0.00,,,0.31,,2013-06-27 03:01:00,
2013-06-26 20:11:00,58.0,57.0,30.05,SW,233,0.0,7.0,97,0.00,,,0.31,,2013-06-27 03:11:00,
2013-06-26 20:21:00,58.0,57.0,30.05,North,0,0.0,0.0,97,0.00,,,0.31,,2013-06-27 03:21:00,
2013-06-26 20:32:00,58.0,57.0,30.05,West,270,0.0,6.0,97,0.00,,,0.28,,2013-06-27 03:32:00,
2013-06-26 20:42:00,58.0,57.0,30.05,West,270,0.0,6.0,97,0.00,,,0.28,,2013-06-27 03:42:00,
2013-06-26 20:51:00,58.0,57.0,30.05,SSW,196,2.0,5.0,97,0.00,,,0.28,,2013-06-27 03:51:00,
2013-06-26 21:01:00,58.0,57.0,30.05,SSW,196,2.0,5.0,97,0.00,,,0.28,,2013-06-27 04:01:00,
2013-06-26 21:11:00,58.0,57.0,30.05,SSW,196,2.0,5.0,97,0.00,,,0.28,,2013-06-27 04:11:00,
2013-06-26 21:32:00,58.0,57.0,30.05,North,0,0.0,5.0,97,0.00,,,0.28,,2013-06-27 04:32:00,
2013-06-26 21:42:00,57.0,57.0,30.06,North,0,0.0,5.0,99,0.00,,,0.20,,2013-06-27 04:42:00,
2013-06-26 21:52:00,57.0,57.0,30.06,North,0,0.0,5.0,99,0.00,,,0.20,,2013-06-27 04:52:00,
2013-06-26 22:02:00,57.0,57.0,30.06,North,0,0.0,5.0,99,0.00,,,0.20,,2013-06-27 05:02:00,
2013-06-26 22:11:00,57.0,57.0,30.06,North,0,0.0,0.0,99,0.00,,,0.20,,2013-06-27 05:11:00,
2013-06-26 22:21:00,57.0,57.0,30.06,North,0,0.0,0.0,99,0.00,,,0.20,,2013-06-27 05:21:00,
2013-06-26 22:32:00,57.0,57.0,30.06,North,0,0.0,0.0,100,0.00,,,0.17,,2013-06-27 05:32:00,
2013-06-26 23:12:00,56.0,56.0,30.06,North,0,0.0,0.0,100,0.00,,,0.17,,2013-06-27 06:12:00,
2013-06-26 23:22:00,56.0,56.0,30.06,North,0,0.0,0.0,100,0.00,,,0.17,,2013-06-27 06:22:00,
2013-06-26 23:34:00,56.0,56.0,30.06,North,0,0.0,0.0,100,0.00,,,0.17,,2013-06-27 06:34:00,
2013-06-26 23:43:00,56.0,56.0,30.06,North,0,0.0,0.0,100,0.00,,,0.17,,2013-06-27 06:43:00,